Cosmos 1842 - Orbit

View from above orbital plane
View from above orbital plane
View from above satellite
View from above satellite

Ground track
Ground track

The orbit data is extracted from the following two-line orbital elements,

1 17911U 87038A   13141.16106465  .00002152  00000-0  15420-3 0  2026
2 17911 082.4914 205.1584 0011625 273.3069 086.6827 15.03875178417508
Epoch (UTC): 21 May 2013 03:51:55
Eccentricity: 0.0011625
inclination: 82.4914°
perigee height: 547 km
apogee height: 563 km
right ascension of ascending node: 205.1584°
argument of perigee: 273.3069°
revolutions per day: 15.03875178
mean anomaly at epoch: 86.6827°
orbit number at epoch: 41750

The dashed part of the orbit path shows where the satellite is in the earth's shadow,  

Developed and maintained by Chris Peat, Heavens-Above GmbH. Please read the updated FAQ before sending e-mail. Imprint. DLR